This demonstration page uses our WeatherBlox Daily Observations layout. Learn more.

Left ArrowRight Arrow

34.16533, -84.80231

Hourly Observations for June 15, 2022

Temp ( °F °C ) Dew Point ( °F °C ) Humidity (%) Winds ( mph kmh ) Pressure ( in mb ) Visibility ( mi km ) Precip ( " mm )
12:15 am 00:15 Mostly Cloudy 77 25 77 25 100 100 Calm 30.02 1017 9 14 0.00 0.00
12:35 am 00:35 Mostly Cloudy 77 25 75 24 94 94 Calm 30.03 1017 9 14 0.00 0.00
12:55 am 00:55 Mostly Cloudy 77 25 75 24 94 94 Calm 30.03 1017 9 14 0.00 0.00
1:15 am 01:15 Partly Cloudy 77 25 75 24 94 94 Calm 30.02 1017 10 16 0.00 0.00
1:35 am 01:35 Mostly Clear 77 25 77 25 100 100 Calm 30.03 1017 8 13 0.00 0.00
1:55 am 01:55 Clear 77 25 75 24 94 94 Calm 30.03 1017 9 14 0.00 0.00
2:15 am 02:15 Mostly Clear 77 25 77 25 100 100 Calm 30.02 1017 9 14 0.00 0.00
2:35 am 02:35 Mostly Clear 77 25 75 24 94 94 Calm 30.02 1017 8 13 0.00 0.00
2:55 am 02:55 Partly Cloudy 77 25 75 24 94 94 Calm 30.02 1017 9 14 0.00 0.00
3:15 am 03:15 Partly Cloudy 77 25 75 24 94 94 Calm 30.02 1017 9 14 0.00 0.00
3:35 am 03:35 Mostly Clear 77 25 75 24 94 94 Calm 30.01 1016 9 14 0.00 0.00
3:55 am 03:55 Mostly Clear 77 25 75 24 94 94 Calm 30.01 1016 10 16 0.00 0.00
4:15 am 04:15 Mostly Clear 77 25 75 24 94 94 Calm 30.01 1016 9 14 0.00 0.00
4:35 am 04:35 Mostly Cloudy 77 25 75 24 94 94 Calm 30.02 1017 9 14 0.00 0.00
4:55 am 04:55 Mostly Cloudy 77 25 75 24 94 94 Calm 30.02 1017 9 14 0.00 0.00
5:15 am 05:15 Mostly Cloudy 77 25 75 24 94 94 Calm 30.01 1016 9 14 0.00 0.00
5:35 am 05:35 Mostly Cloudy 75 24 75 24 100 100 Calm 30.02 1017 9 14 0.00 0.00
5:55 am 05:55 Cloudy 75 24 75 24 100 100 Calm 30.02 1017 10 16 0.00 0.00
6:15 am 06:15 Mostly Cloudy 75 24 73 23 94 94 Calm 30.03 1017 9 14 0.00 0.00
6:35 am 06:35 Mostly Sunny 75 24 73 23 94 94 Calm 30.03 1017 10 16 0.00 0.00
6:55 am 06:55 Sunny 75 24 73 23 94 94 Calm 30.04 1017 10 16 0.00 0.00
7:15 am 07:15 Sunny 75 24 73 23 94 94 Calm 30.04 1017 9 14 0.00 0.00
7:35 am 07:35 Sunny 77 25 73 23 89 89 Calm 30.05 1018 10 16 0.00 0.00
7:55 am 07:55 Sunny 77 25 75 24 94 94 Calm 30.06 1018 9 14 0.00 0.00
8:15 am 08:15 Sunny 77 25 73 23 89 89 Calm 30.06 1018 10 16 0.00 0.00
8:35 am 08:35 Sunny 79 26 75 24 89 89 Calm 30.07 1018 9 14 0.00 0.00
8:55 am 08:55 Sunny 79 26 75 24 89 89 VRB 5 7 30.07 1018 9 14 0.00 0.00
9:15 am 09:15 Sunny 81 27 75 24 84 84 W 6 9 30.06 1018 9 14 0.00 0.00
9:35 am 09:35 Sunny 81 27 77 25 89 89 Calm 30.06 1018 9 14 0.00 0.00
9:55 am 09:55 Sunny 82 28 77 25 84 84 Calm 30.06 1018 9 14 0.00 0.00
10:15 am 10:15 Sunny 84 29 77 25 79 79 VRB 3 6 30.06 1018 9 14 0.00 0.00
10:35 am 10:35 Sunny 86 30 77 25 75 75 VRB 3 6 30.06 1018 10 16 0.00 0.00
10:55 am 10:55 Sunny 88 31 77 25 70 70 Calm 30.05 1018 10 16 0.00 0.00
11:15 am 11:15 Sunny 90 32 75 24 63 63 NNE 9 15 30.05 1018 10 16 0.00 0.00
11:35 am 11:35 Sunny 90 32 73 23 59 59 NNE 9 15 30.05 1018 10 16 0.00 0.00
11:55 am 11:55 Sunny 91 33 73 23 56 56 VRB 5 7 30.05 1018 10 16 0.00 0.00
12:15 pm 12:15 Sunny 91 33 73 23 56 56 VRB 5 7 30.05 1018 10 16 0.00 0.00
12:35 pm 12:35 Sunny 91 33 73 23 56 56 N 8 13 30.04 1017 10 16 0.00 0.00
12:55 pm 12:55 Sunny 91 33 73 23 56 56 NNW 8 13 30.04 1017 10 16 0.00 0.00
1:15 pm 13:15 Sunny 93 34 73 23 53 53 VRB 6 9 30.04 1017 10 16 0.00 0.00
1:35 pm 13:35 Sunny 93 34 72 22 49 49 N 8 13 30.04 1017 10 16 0.00 0.00
1:55 pm 13:55 Sunny 93 34 72 22 49 49 VRB 5 7 30.03 1017 10 16 0.00 0.00
2:15 pm 14:15 Sunny 93 34 72 22 49 49 VRB 7 11 30.03 1017 10 16 0.00 0.00
2:35 pm 14:35 Sunny 95 35 73 23 50 50 VRB 5 7 30.01 1016 10 16 0.00 0.00
2:55 pm 14:55 Sunny 95 35 72 22 47 47 VRB 6 9 30.01 1016 8 13 0.00 0.00
3:15 pm 15:15 Mostly Sunny 95 35 73 23 50 50 E 6 9 30.01 1016 10 16 0.00 0.00
3:35 pm 15:35 Mostly Cloudy 95 35 73 23 50 50 NE 5 7 30.00 1016 10 16 0.00 0.00
3:55 pm 15:55 Partly Cloudy 97 36 72 22 44 44 E 5 7 30.00 1016 10 16 0.00 0.00
4:15 pm 16:15 Partly Cloudy 97 36 72 22 44 44 ESE 5 7 30.00 1016 9 14 0.00 0.00
4:35 pm 16:35 Mostly Sunny 97 36 72 22 44 44 NE 3 6 29.99 1016 10 16 0.00 0.00
4:55 pm 16:55 Mostly Sunny 97 36 73 23 47 47 Calm 29.99 1016 10 16 0.00 0.00
5:15 pm 17:15 Mostly Sunny 97 36 73 23 47 47 VRB 5 7 29.99 1016 10 16 0.00 0.00
5:35 pm 17:35 Mostly Sunny 97 36 72 22 44 44 Calm 29.98 1015 10 16 0.00 0.00
5:55 pm 17:55 Mostly Sunny 97 36 73 23 47 47 VRB 5 7 29.98 1015 10 16 0.00 0.00
6:15 pm 18:15 Partly Cloudy with Nearby Thunderstorms 97 36 73 23 47 47 Calm 29.98 1015 10 16 0.00 0.00
6:35 pm 18:35 Sunny 97 36 72 22 44 44 Calm 29.97 1015 10 16 0.00 0.00
6:55 pm 18:55 Partly Cloudy 97 36 73 23 47 47 Calm 29.97 1015 10 16 0.00 0.00
7:15 pm 19:15 Partly Cloudy 95 35 73 23 50 50 Calm 29.98 1015 10 16 0.00 0.00
7:35 pm 19:35 Mostly Cloudy 93 34 77 25 59 59 S 8 13 30.00 1016 10 16 0.00 0.00
7:55 pm 19:55 Partly Cloudy with Nearby Thunderstorms 90 32 75 24 63 63 SSE 5 7 30.00 1016 10 16 0.00 0.00
8:15 pm 20:15 Partly Cloudy with Nearby Thunderstorms 88 31 75 24 66 66 SSW 5 7 30.00 1016 10 16 0.00 0.00
8:35 pm 20:35 Mostly Cloudy with Nearby Thunderstorms 88 31 73 23 62 62 W 13 20 30.01 1016 10 16 0.00 0.00
8:55 pm 20:55 Mostly Cloudy with Nearby Thunderstorms 82 28 72 22 70 70 W 7 11 30.02 1017 10 16 0.00 0.00
9:15 pm 21:15 Partly Cloudy 82 28 68 20 62 62 Calm 30.00 1016 10 16 0.00 0.00
9:35 pm 21:35 Mostly Cloudy 82 28 68 20 62 62 VRB 3 6 30.06 1018 10 16 0.00 0.00
9:55 pm 21:55 Mostly Cloudy with Nearby Thunderstorms 82 28 70 21 66 66 S 9 15 30.08 1019 10 16 0.00 0.00
10:15 pm 22:15 Mostly Cloudy 82 28 72 22 70 70 Calm 30.08 1019 10 16 0.00 0.00
10:35 pm 22:35 Mostly Cloudy 81 27 72 22 74 74 W 7 11 30.10 1019 10 16 0.00 0.00
10:55 pm 22:55 Partly Cloudy with Nearby Thunderstorms 79 26 72 22 79 79 VRB 5 7 30.11 1020 10 16 0.00 0.00
11:15 pm 23:15 Partly Cloudy 79 26 70 21 74 74 W 6 9 30.11 1020 10 16 0.00 0.00
11:35 pm 23:35 Mostly Cloudy 77 25 72 22 83 83 VRB 6 9 30.12 1020 10 16 0.00 0.00
11:55 pm 23:55 Cloudy 77 25 70 21 79 79 WSW 6 9 30.12 1020 10 16 0.00 0.00

Powered by AerisWeather